GW1728 Weather Reports


Display with metric or nautical units.
time (UTC)temp
F
wind
direction
speed
MPH
gust
MPH
rain 1hr
in
rain 24hr
in
rain mn
in
humidity
%
barometer
mb
20260504050445 57 43 11.0 13.0 0.00 0.00 0.00 38 1011.7
20260504045942 57 34 5.0 6.0 0.00 0.00 0.00 39 1011.5
20260504045437 57 29 6.0 7.0 0.00 0.00 0.00 38 1011.3
20260504044934 57 43 5.0 5.0 0.00 0.00 0.00 38 1011.3
20260504044432 57 29 5.0 6.0 0.00 0.00 0.00 38 1011.0
20260504043929 58 41 5.0 7.0 0.00 0.00 0.00 38 1010.8
20260504043426 58 17 5.0 7.0 0.00 0.00 0.00 38 1010.8
20260504042923 58 29 5.0 7.0 0.00 0.00 0.00 37 1010.5
20260504042420 59 13 5.0 6.0 0.00 0.00 0.00 36 1010.6
20260504041916 59 21 6.0 7.0 0.00 0.00 0.00 36 1010.4
20260504041412 59 40 6.0 7.0 0.00 0.00 0.00 35 1010.4
20260504040908 60 25 4.0 6.0 0.00 0.00 0.00 35 1010.0
20260504040406 60 36 8.0 9.0 0.00 0.00 0.00 36 1009.9
20260504035902 60 21 9.0 10.0 0.00 0.00 0.00 34 1009.9
20260504035400 60 19 9.0 11.0 0.00 0.00 0.00 35 1009.8
20260504034856 60 23 6.0 8.0 0.00 0.00 0.00 36 1009.8
20260504034354 60 49 8.0 10.0 0.00 0.00 0.00 35 1009.7
20260504033850 61 22 9.0 10.0 0.00 0.00 0.00 34 1009.5
20260504033349 62 26 9.0 10.0 0.00 0.00 0.00 34 1009.5
20260504032845 61 41 11.0 15.0 0.00 0.00 0.00 33 1009.3
20260504032342 61 32 7.0 8.0 0.00 0.00 0.00 32 1009.0
20260504031839 61 21 7.0 8.0 0.00 0.00 0.00 31 1008.8
20260504031336 62 27 6.0 7.0 0.00 0.00 0.00 29 1008.6
20260504030832 62 24 7.0 8.0 0.00 0.00 0.00 28 1008.6
20260504030330 59 40 11.0 13.0 0.00 0.00 0.00 30 1008.5
20260504025826 59 11 2.0 2.0 0.00 0.00 0.00 33 1008.7
20260504025323 59 15 2.0 2.0 0.00 0.00 0.00 32 1008.3
20260504024819 60 14 1.0 2.0 0.00 0.00 0.00 31 1008.3
20260504024316 60 17 1.0 1.0 0.00 0.00 0.00 31 1008.2
20260504023813 62 22 1.0 1.0 0.00 0.00 0.00 31 1008.3
20260504023309 62 29 2.0 2.0 0.00 0.00 0.00 31 1008.4
20260504022805 63 28 1.0 2.0 0.00 0.00 0.00 31 1008.3
20260504022304 64 35 1.0 1.0 0.00 0.00 0.00 29 1008.3
20260504021758 65 32 2.0 2.0 0.00 0.00 0.00 28 1008.4
20260504021256 66 29 3.0 3.0 0.00 0.00 0.00 27 1008.4
20260504020753 67 24 2.0 2.0 0.00 0.00 0.00 26 1008.3
20260504020249 67 25 3.0 3.0 0.00 0.00 0.00 27 1008.5
20260504015745 68 13 3.0 3.0 0.00 0.00 0.00 26 1008.4
20260504015242 68 26 4.0 5.0 0.00 0.00 0.00 25 1008.3
20260504014737 69 11 3.0 3.0 0.00 0.00 0.00 25 1008.2
20260504014234 71 12 4.0 5.0 0.00 0.00 0.00 24 1008.3
20260504013732 72 20 5.0 6.0 0.00 0.00 0.00 22 1008.3
20260504013230 72 21 6.0 7.0 0.00 0.00 0.00 22 1008.2
20260504012726 72 20 5.0 7.0 0.00 0.00 0.00 23 1008.2
20260504012224 72 335 4.0 8.0 0.00 0.00 0.00 23 1008.2
20260504011721 73 25 5.0 7.0 0.00 0.00 0.00 21 1008.4
20260504011217 73 17 7.0 8.0 0.00 0.00 0.00 21 1008.2
20260504010713 74 26 7.0 7.0 0.00 0.00 0.00 21 1008.2
20260504010210 74 22 6.0 7.0 0.00 0.00 0.00 20 1008.4
20260504005706 74 21 11.0 11.0 0.00 0.00 0.00 19 1008.5
20260504005203 75 17 8.0 8.0 0.00 0.00 0.00 19 1008.3
20260504004701 76 24 7.0 10.0 0.00 0.00 0.00 19 1008.3
20260504004157 75 9 5.0 5.0 0.00 0.00 0.00 19 1008.3
20260504003654 76 15 5.0 7.0 0.00 0.00 0.00 18 1008.4
20260504003151 76 8 8.0 9.0 0.00 0.00 0.00 18 1008.5
20260504002648 77 8 6.0 7.0 0.00 0.00 0.00 18 1008.6
20260504002145 77 348 3.0 3.0 0.00 0.00 0.00 18 1008.4
20260504001643 77 312 3.0 3.0 0.00 0.00 0.00 17 1008.4
20260504001139 77 303 2.0 2.0 0.00 0.00 0.00 19 1008.5
20260504000636 77 347 6.0 7.0 0.00 0.00 0.00 18 1008.5
20260504000133 77 314 3.0 3.0 0.00 0.00 0.00 17 1008.5
20260503235631 77 346 4.0 6.0 0.00 0.00 0.00 17 1008.7
20260503235128 77 14 3.0 7.0 0.00 0.00 0.00 17 1008.8
20260503234626 78 294 2.0 2.0 0.00 0.00 0.00 17 1008.6
20260503234124 77 319 2.0 3.0 0.00 0.00 0.00 17 1008.7
20260503233621 77 258 2.0 2.0 0.00 0.00 0.00 15 1009.0
20260503233116 77 2 6.0 8.0 0.00 0.00 0.00 17 1008.6
20260503232613 77 322 4.0 7.0 0.00 0.00 0.00 17 1008.8
20260503232111 77 338 7.0 8.0 0.00 0.00 0.00 16 1009.0
20260503231609 77 348 4.0 6.0 0.00 0.00 0.00 17 1008.8
20260503231105 76 334 3.0 3.0 0.00 0.00 0.00 17 1009.1
20260503230602 77 312 3.0 5.0 0.00 0.00 0.00 16 1009.1
20260503230059 77 344 6.0 7.0 0.00 0.00 0.00 16 1009.2
20260503225556 76 327 4.0 5.0 0.00 0.00 0.00 17 1009.4
20260503225051 78 318 5.0 7.0 0.00 0.00 0.00 17 1009.3
20260503224549 77 19 6.0 8.0 0.00 0.00 0.00 16 1009.5
20260503224046 76 340 6.0 7.0 0.00 0.00 0.00 17 1009.5
20260503223544 76 305 6.0 9.0 0.00 0.00 0.00 17 1009.5
20260503223039 77 315 5.0 6.0 0.00 0.00 0.00 16 1009.6
20260503222538 77 346 6.0 7.0 0.00 0.00 0.00 16 1009.8
20260503222035 76 354 3.0 5.0 0.00 0.00 0.00 18 1009.6
20260503221533 76 309 5.0 6.0 0.00 0.00 0.00 17 1009.8
20260503221031 76 263 1.0 2.0 0.00 0.00 0.00 17 1009.8
20260503220527 77 23 1.0 3.0 0.00 0.00 0.00 18 1009.8
20260503220023 77 326 5.0 7.0 0.00 0.00 0.00 17 1009.9
20260503215521 77 1 7.0 10.0 0.00 0.00 0.00 18 1009.8
20260503215018 77 284 3.0 5.0 0.00 0.00 0.00 17 1010.2
20260503214516 77 13 6.0 8.0 0.00 0.00 0.00 17 1010.2
20260503214012 77 281 4.0 5.0 0.00 0.00 0.00 17 1010.3
20260503213511 75 290 3.0 3.0 0.00 0.00 0.00 18 1010.4
20260503213007 77 243 2.0 6.0 0.00 0.00 0.00 17 1010.6
20260503212505 77 265 2.0 3.0 0.00 0.00 0.00 19 1010.4
20260503212002 77 297 3.0 5.0 0.00 0.00 0.00 18 1010.6
20260503211459 74 288 1.0 2.0 0.00 0.00 0.00 19 1010.6
20260503210954 74 9 9.0 10.0 0.00 0.00 0.00 17 1010.8
20260503210451 74 72 2.0 2.0 0.00 0.00 0.00 18 1010.8
20260503205946 74 345 6.0 8.0 0.00 0.00 0.00 17 1010.9
20260503205443 76 296 1.0 2.0 0.00 0.00 0.00 18 1011.3
20260503204939 76 322 2.0 3.0 0.00 0.00 0.00 18 1011.4
20260503204436 76 287 4.0 7.0 0.00 0.00 0.00 19 1011.4
20260503203933 75 0 3.0 5.0 0.00 0.00 0.00 19 1011.4
20260503203431 75 326 3.0 6.0 0.00 0.00 0.00 19 1011.5
20260503202927 75 332 7.0 9.0 0.00 0.00 0.00 18 1011.7
20260503202426 75 329 6.0 7.0 0.00 0.00 0.00 18 1011.7
20260503201924 75 318 3.0 6.0 0.00 0.00 0.00 20 1011.7
20260503201421 73 6 2.0 3.0 0.00 0.00 0.00 19 1011.6
20260503200918 75 304 4.0 6.0 0.00 0.00 0.00 19 1011.5
20260503200414 75 352 5.0 7.0 0.00 0.00 0.00 18 1011.7
20260503195911 75 222 1.0 1.0 0.00 0.00 0.00 20 1011.7
20260503195409 75 296 4.0 6.0 0.00 0.00 0.00 19 1011.9
20260503194905 75 305 5.0 7.0 0.00 0.00 0.00 20 1011.9
20260503194402 75 315 6.0 8.0 0.00 0.00 0.00 19 1012.3
20260503193858 75 282 3.0 5.0 0.00 0.00 0.00 20 1012.0
20260503193353 74 292 3.0 5.0 0.00 0.00 0.00 19 1012.1
20260503192849 74 328 4.0 6.0 0.00 0.00 0.00 21 1012.2
20260503192345 74 240 2.0 5.0 0.00 0.00 0.00 20 1012.3
20260503191842 75 297 6.0 8.0 0.00 0.00 0.00 20 1012.5
20260503191339 75 307 3.0 5.0 0.00 0.00 0.00 20 1012.6
20260503190835 75 223 2.0 3.0 0.00 0.00 0.00 21 1012.5
20260503190332 74 268 2.0 2.0 0.00 0.00 0.00 20 1012.5
20260503185829 73 355 3.0 3.0 0.00 0.00 0.00 23 1012.5
20260503185325 73 309 3.0 3.0 0.00 0.00 0.00 22 1012.8
20260503184820 73 246 2.0 3.0 0.00 0.00 0.00 22 1012.6
20260503184316 74 281 5.0 7.0 0.00 0.00 0.00 21 1012.9
20260503183812 73 1 2.0 3.0 0.00 0.00 0.00 24 1012.9
20260503183309 72 290 3.0 3.0 0.00 0.00 0.00 25 1012.9
20260503182807 72 218 4.0 7.0 0.00 0.00 0.00 24 1013.1
20260503182306 72 264 4.0 5.0 0.00 0.00 0.00 23 1013.0
20260503181803 72 341 3.0 6.0 0.00 0.00 0.00 24 1013.3
20260503181300 72 267 1.0 1.0 0.00 0.00 0.00 24 1013.3
20260503180756 71 336 5.0 7.0 0.00 0.00 0.00 22 1013.6
20260503180254 72 359 4.0 7.0 0.00 0.00 0.00 25 1013.6
20260503175750 71 272 3.0 3.0 0.00 0.00 0.00 26 1013.6
20260503175248 69 339 5.0 6.0 0.00 0.00 0.00 25 1013.4
20260503174744 70 334 2.0 2.0 0.00 0.00 0.00 27 1013.6
20260503174242 69 272 3.0 5.0 0.00 0.00 0.00 25 1013.7
20260503173736 70 305 3.0 5.0 0.00 0.00 0.00 25 1013.6
20260503173233 70 344 4.0 6.0 0.00 0.00 0.00 27 1013.8
20260503172730 69 323 4.0 6.0 0.00 0.00 0.00 26 1013.7
20260503172227 69 154 1.0 1.0 0.00 0.00 0.00 28 1013.9
20260503171723 68 306 4.0 5.0 0.00 0.00 0.00 27 1013.9
20260503171220 68 349 6.0 7.0 0.00 0.00 0.00 27 1013.8
20260503170718 67 0 3.0 3.0 0.00 0.00 0.00 29 1014.2
20260503170214 66 344 5.0 7.0 0.00 0.00 0.00 30 1014.0
20260503160136 62 299 2.0 3.0 0.00 0.00 0.00 43 1014.1
20260503150606 55 254 0.0 0.0 0.00 0.00 0.00 66 1015.0
20260503130950 41 197 0.0 0.0 0.00 0.00 0.00 87 1015.2
20260503130448 41 197 0.0 0.0 0.00 0.00 0.00 90 1015.2
20260503110338 39 194 0.0 1.0 0.00 0.00 0.00 89 1015.9
20260503090224 45 328 1.0 2.0 0.00 0.00 0.00 82 1016.5
20260503081151 45 288 1.0 3.0 0.00 0.00 0.00 81 1016.5
20260503080646 46 283 1.0 1.0 0.00 0.00 0.00 79 1016.7
20260503080144 46 285 0.0 0.0 0.00 0.00 0.00 80 1016.6
20260503072615 50 288 1.0 1.0 0.00 0.00 0.00 73 1016.7
20260503072112 50 288 0.0 1.0 0.00 0.00 0.00 71 1016.6
20260503071609 50 353 4.0 5.0 0.00 0.00 0.00 70 1016.8
20260503071105 49 342 2.0 3.0 0.00 0.00 0.00 73 1016.7
20260503070602 50 356 1.0 2.0 0.00 0.00 0.00 71 1016.7